Weather in Indio

United States     33°43′35″N   116°13′35″W
temp.,
°C
wind,
m/s
gust,
m/s
humid.,
%
clouds,
%
prec.,
mm/h
press.,
hPa
HPBL,
m
25 may, wed
wed2523:00+27n11190 0.0 100734
02:00+24n11240 0.0 100830
05:00+23nnw11265 0.0 100814
08:00+30s10170 0.0 1009260
11:00+35se43140 0.0 1009882
14:00+38se7590 0.0 10071842
17:00+38se7670 0.0 10051853
20:00+32e12125 0.0 100632
26 may, thu
thu2623:00+27nw11285 0.0 100877
02:00+25ene22285 0.0 100858
05:00+23n11345 0.0 100844
08:00+28se10285 0.0 1010339
11:00+32se332029 0.0 1010956
14:00+37se55131 0.0 10081675
17:00+37ese45110 0.0 10061670
20:00+30nw68190 0.0 1007173
27 may, fri
fri2723:00+26nw57250 0.0 1009129
02:00+24nw452381 0.0 100971
05:00+24wnw332178 0.0 100928
08:00+28nw12160 0.0 1011308
11:00+33se22105 0.0 10101135
14:00+36se348100 0.0 10081838
17:00+37wsw5610100 0.0 10052154
20:00+29nw6926100 0.0 1007243
28 may, sat
sat2823:00+24nw5832100 0.0 1008203
02:00+23nw4630100 0.0 1006130
05:00+22nw453376 0.0 100774
08:00+25nw45265 0.0 1008481
11:00+31nnw12187 0.0 10061167
14:00+35nnw24145 0.0 10032126
17:00+34wnw76175 0.0 10001821
20:00+27nw793137 0.0 1002313
29 may, sun
sun2923:00+22nw694043 0.0 1002261
02:00+21nw584599 0.0 1002232
05:00+19nw4647100 0.0 1002141
08:00+22nw663595 0.0 1003512
11:00+29nw44175 0.0 10021288
14:00+33nw56110 0.0 9992507
17:00+32w66160 0.0 9972088
20:00+24wnw68350 0.0 1000368